Regional Weather Roundup
Issued by NWS

Home | Current Version | Previous Version | Text Only | Print | Product List | Glossary Off
Versions: 1 2 3 4 5 6 7 8 9 10 11 12 13 14 15 16 17 18 19 20 21 22 23 24 25 26 27 28 29 30 31 32 33 34 35 36 37 38 39 40 41 42 43 44 45 46 47 48 49 50

000
ASUS45 KSLC 261610
RWRUT

UTAH REGIONAL WEATHER ROUNDUP
NATIONAL WEATHER SERVICE SALT LAKE CITY UT
1000 AM MDT SAT JUL 26 2014

UTZ001>011-023>025-261700-

NORTHERN UTAH

CITY           SKY/WX    TMP DP  RH WIND       PRES   REMARKS
HILL AFB       SUNNY     78  43  29 SE8       30.18R
LOGAN          SUNNY     70  42  36 NE3       30.20R
OGDEN          SUNNY     80  43  26 E5        30.16R
PROVO AIRPORT  MOSUNNY   79  54  41 E3        30.18R
SALT LAKE CITY MOSUNNY   81  44  27 NW6       30.14R
VERNAL         SUNNY     78  47  33 E5        30.20R
WENDOVER       SUNNY     81  30  16 SE8       30.17S
HEBER CITY     SUNNY     72  50  46 NW3       30.24S
WEST JORDAN    SUNNY     81  50  34 N3        30.18R

$$

UTZ012>022-026-027-261700-

SOUTHERN UTAH

CITY           SKY/WX    TMP DP  RH WIND       PRES   REMARKS
BRYCE CANYON   CLOUDY    65  51  60 CALM      30.41S
CEDAR CITY     PTSUNNY   78  50  37 NW3       30.25S
MILFORD        PTSUNNY   83  54  36 S20       30.19S
MOAB/CYNLANDS  SUNNY     84  46  26 S3        30.13S
PRICE          PTSUNNY   76  47  35 CALM      30.25R
ST GEORGE      SUNNY     90  54  29 CALM      30.09R
KANAB          PTSUNNY   72  55  56 N3        30.28R

$$

REGIONAL REPORTS     COLORADO/ARIZONA

CITY           SKY/WX    TMP DP  RH WIND       PRES   REMARKS
CRAIG, CO      MOSUNNY   68  54  60 VRB5      30.28S
GRAND JUNCTION SUNNY     79  51  37 SE7       30.19S
RIFLE          SUNNY     75  50  41 VRB3      30.25S
MONTROSE       SUNNY     79  50  36 CALM      30.27S
CORTEZ         SUNNY     80  50  34 VRB3      30.28S
PAGE, AZ       CLOUDY    85  50  29 CALM      30.17R
GRAND CANYON   PTSUNNY   73  48  41 VRB6      30.38R
KINGMAN        SUNNY     83  61  47 E10       30.14R
FLAGSTAFF      SUNNY     76  46  34 VRB6      30.39R

$$

REGIONAL REPORTS    NEVADA/IDAHO/WYOMING

CITY           SKY/WX    TMP DP  RH WIND       PRES   REMARKS
LAS VEGAS, NV  MOSUNNY   94  55  26 VRB3      29.95R HX  92
ELY            SUNNY     73  29  19 N5        30.30R
ELKO           SUNNY     69  31  24 CALM      30.23R
POCATELLO, ID  SUNNY     70  32  24 W6        30.23S
BURLEY         SUNNY     69  47  45 E6        30.20R
EVANSTON, WY   SUNNY     72  35  25 N3        30.35R
ROCK SPRINGS   SUNNY     74  24  15 W6        30.30S

$$



USA.gov is the U.S. government's official web portal to all federal, state and local government web resources and services.